User: anonymous   Login
Location: Unspecified
(0.0000°N, 0.0000°E)
Time: 16:39:44
(UTC+00:00)
Language:

COSMOS 2400 - Orbit

View from above orbital plane
View from above orbital plane
View from above satellite
View from above satellite

Ground track
Ground track

The orbit data is extracted from the following two-line orbital elements,

1 27868U 03037A   17204.95752576 +.00000004 +00000-0 -39757-4 0  9994
2 27868 082.4686 207.6765 0021389 331.7027 028.2897 12.45131764633143
Epoch (UTC): 23 July 2017 22:58:50
Eccentricity: 0.0021389
inclination: 82.4686°
perigee height: 1468 km
apogee height: 1502 km
right ascension of ascending node: 207.6765°
argument of perigee: 331.7027°
revolutions per day: 12.45131764
mean anomaly at epoch: 28.2897°
orbit number at epoch: 63314

The dashed part of the orbit path shows where the satellite is in the earth's shadow,  

DLR